Location: Advent Pentecost Church
(32.7757°N, 96.7408°W)
Time: 14:50:09
(UTC+00:00)

N. Korean satellite - Pass Details

Date: 21 October 2021
Orbit: 447 x 495 km, 97.3° (Epoch: 03 December)

Event Time Altitude Azimuth Distance (km) Brightness Sun altitude
Rises 11:42:59 0° 9° (N) 2,589 10.3 -11.8°
Reaches altitude 10° 11:45:05 10° 7° (N) 1,699 9.3 -11.4°
Maximum altitude 11:48:44 73° 283° (WNW) 518 6.5 -10.6°
Drops below altitude 10° 11:52:19 10° 198° (SSW) 1,670 9.2 -9.9°
Sets 11:54:22 0° 196° (SSW) 2,539 10.1 -9.4°
